Location: Alphen aan den Rijn
(52.1277°N, 4.6689°E)
Time: 07:31:24
(UTC+01:00)

ISS - Pass Details

Date: 29 October 2021
Orbit: 417 x 423 km, 51.6° (Epoch: 01 December)

Event Time Altitude Azimuth Distance (km) Brightness Sun altitude
Exits shadow 06:17:45 54° 156° (SSE) 520 -3.3 -20.9°
Drops below altitude 10° 06:21:00 10° 83° (E) 1,504 0.3 -20.4°
Sets 06:23:07 0° 79° (E) 2,368 1.6 -20.1°
